www.pogodaiklimat.ru

Погода и климат >> Архив погоды >> Россия >> Чукотка >> Мыс Ванкарем


АРХИВ ПОГОДЫ на Мысе Ванкарем

Время (UTC), дата Ветер
(напр.,м/с)
 
Видим.   Явления Облачность Т
(С)
Тd
(С)
f
(%)
Тe
(С)
Тes
(С)
Комфортность P
(гПа)
Po
(гПа)
Тmin
(С)
Tmax
(С)
R
(мм)
R24
(мм)
S
(см)
21 17.05 СЗ 4
{10}
20 км 10/0
[Ac und]
-3.5 -5.3 87 -10 -8 1012.1 1011.5
00 18.05 С 5
{9}
20 км 10/10 600 м
[Sc]
-4.0 -6.6 82 -11 -11 1010.7 1010.1
03 18.05 СЗ 5
{9}
20 км 10/10 600 м
[Sc]
-4.2 -6.8 82 -11 -11 1010.3 1009.7
06 18.05 СЗ 8
{11}
20 км 10/8 600 м
[Sc Ac und]
-1.9 -3.7 87 -10 -10 1010.0 1009.4 -1.3
09 18.05 СЗ 8
{12}
20 км 10/5 600 м
[Sc Ac und]
+1.7 -0.3 87 -5 -5 1009.6 1009.0
12 18.05 СЗ 8
{12}
20 км 10/6 600 м
[Sc Ac und]
+0.9 -1.1 86 -6 -6 1009.1 1008.5
15 18.05 С 9
{13}
20 км 10/10 600 м
[Sc]
-0.8 -2.9 86 -9 -9 1010.2 1009.6
18 18.05 СЗ 8
{12}
20 км 10/10 600 м
[Sc]
-1.4 -3.3 87 -9 -9 1011.0 1010.4 -1.4
21 18.05 С 9
{13}
20 км 10/8 600 м
[Sc Ac und]
-0.6 -2.4 88 -9 -9 1012.1 1011.5
00 19.05 С 12
{16}
20 км 10/8 600 м
[Sc Ac und]
+0.3 -1.4 88 -8 -8 1010.6 1010.0
03 19.05 С 13
{18}
20 км 10/5 600 м
[Sc Ac und]
-0.6 -2.4 88 -10 -10 1012.4 1011.8
06 19.05 СЗ 13
{18}
20 км 10/10 600 м
[Sc]
-1.1 -2.9 88 -11 -11 1013.5 1012.9 +0.7
09 19.05 СЗ 11
{17}
20 км 10/10 600 м
[Sc]
-1.6 -4.0 84 -11 -11 1014.3 1013.7
12 19.05 СЗ 10
{14}
20 км 10/10 600 м
[Sc]
-3.1 -5.5 83 -12 -12 1015.1 1014.5
15 19.05 СЗ 9
{13}
20 км 10/10 600 м
[Sc]
-4.0 -6.6 82 -13 -13 1015.6 1015.0
18 19.05 СЗ 8
{12}
20 км 9/3 600 м
[Sc Ac trans Ci fib]
-5.2 -7.7 83 -14 -14 1016.6 1016.0 -5.7
21 19.05 СЗ 6
{11}
20 км 9/0
[Ac trans Ci fib]
-5.1 -7.2 85 -13 -11 1017.4 1016.8
00 20.05 СЗ 6
{10}
20 км 10/0
[Ac und]
-3.1 -5.1 86 -11 -9 1018.8 1018.2
03 20.05 СЗ 7
{10}
20 км 10/0
[Ac und]
-3.0 -4.7 88 -11 -10 1019.0 1018.4
06 20.05 С 6
{9}
20 км 10/0
[Ac und]
-3.5 -5.3 87 -11 -11 1019.0 1018.4 -2.2
09 20.05 СЗ 6
{9}
20 км 10/0
[Ac und]
-2.8 -4.4 89 -10 -10 1019.3 1018.7
12 20.05 СЗ 6
{9}
20 км 9/0
[Ac trans Ci fib]
-2.4 -4.0 89 -10 -10 1019.6 1019.0
15 20.05 СЗ 6
{9}
20 км 10/0
[Ac und]
-3.2 -4.9 88 -11 -11 1019.6 1019.0
18 20.05 СЗ 7
{10}
20 км 10/6 600 м
[Sc Ac und]
-1.6 -3.3 88 -9 -9 1019.2 1018.6 -3.2
21 20.05 СЗ 8
{11}
20 км 10/0
[Ac und]
-0.2 -2.0 88 -8 -7 1018.6 1018.0
00 21.05 СЗ 6
{10}
20 км 10/0
[Ac und]
-0.4 -1.9 90 -7 -6 1019.5 1018.9
03 21.05 СЗ 5
{8}
10 км {туман} 9/0
[Ac trans]
+0.5 -0.3 94 -6 -4 1019.2 1018.6
06 21.05 СЗ 6
{9}
10 км {туман} 10/0
[Ac und]
+1.1 -0.3 90 -5 -5 1019.5 1018.9 +1.8
09 21.05 СЗ 5
{8}
10 км 10/0
[Ac und]
+1.7 +0.1 89 -4 -4 1019.9 1019.3
12 21.05 С 5
{8}
10 км 10/10 600 м
[Sc]
+0.8 -0.9 88 -5 -5 1020.2 1019.6
15 21.05 С 4
{7}
10 км 10/9 600 м
[Sc Ac und]
+0.3 -1.4 88 -5 -5 1020.8 1020.2
18 21.05 СЗ 3
{7}
20 км 10/3 600 м
[Sc Ac und]
-0.4 -2.2 88 -5 -5 1021.5 1020.9 -0.4
21 21.05 СЗ 4
{6}
20 км 10/8 600 м
[Sc Ac und]
+0.9 -0.5 90 -4 -4 1022.0 1021.4
00 22.05 С 3
{6}
500 м туман 10/10 300 м
[Sc]
+1.3 +1.3 100 -3 -3 1021.6 1021.0
03 22.05 С 3
{5}
20 км {туман} 8/0
[Ac trans Ci fib]
+2.1 +0.8 91 -2 +2 1022.2 1021.6
06 22.05 СЗ 5
{7}
20 км {туман} 10/0
[Ac und]
+1.7 +0.6 92 -4 -4 1022.6 1022.0 +2.4
09 22.05 СЗ 5
{7}
20 км 9/5 600 м
[Sc Ac trans]
+1.5 +0.4 92 -4 -4 1023.0 1022.4
12 22.05 СЗ 5
{7}
20 км 10/10 600 м
[Sc]
+1.0 -0.7 88 -5 -5 1023.5 1022.9
15 22.05 СЗ 5
{7}
20 км 9/8 600 м
[Sc Ac trans]
+0.8 -1.2 86 -5 -5 1022.5 1021.9
18 22.05 С 5
{6}
20 км 9/8 600 м
[Sc Ac trans]
+0.5 -1.5 86 -5 -5 1021.6 1021.0 +0.1
21 22.05 С 4
{6}
20 км 10/8 600 м
[Sc Ac und]
+0.4 -0.8 92 -5 -5 1020.6 1020.0
00 23.05 С 3
{6}
20 км 9/4 600 м
[Sc Ac und]
+2.2 +0.9 91 -2 0 1023.0 1022.4
03 23.05 С 2
{5}
20 км 9/5 600 м
[Sc Ac trans]
+1.6 +0.2 90 -2 0 1022.1 1021.5
06 23.05 С 1
{3}
20 км 9/8 600 м
[Sc Ac trans]
+1.3 -0.1 90 -1 -0 1021.3 1020.7 +2.6
09 23.05 штиль 0
{2}
10 км 9/8 600 м
[Sc Ac trans]
+1.5 -0.2 88 0 0 1020.6 1020.0
12 23.05 Ю 3
{5}
10 км 10/10 600 м
[Sc]
+1.0 -0.4 90 -4 -4 1020.1 1019.5
15 23.05 Ю 4
{6}
10 км 10/10 600 м
[Sc]
+0.8 -0.6 90 -5 -5 1019.4 1018.8
18 23.05 Ю 6
{8}
10 км 10/10 600 м
[Sc]
-0.7 -2.5 88 -8 -8 1018.8 1018.2 -0.7
21 23.05 Ю 7
{10}
20 км 9/0
[Ac trans]
+1.2 -0.5 88 -6 -4 1018.3 1001.7
00 24.05 Ю 8
{11}
20 км 9/0
[Ac trans Ci fib]
+1.9 +0.6 91 -5 -4 1015.4 1014.8
03 24.05 ЮЗ 9
{12}
20 км 9/0
[Ac trans Ci fib]
+2.8 -0.2 81 -4 -4 1015.1 1014.5
06 24.05 ЮЗ 8
{12}
20 км 10/0
[Ac und]
+3.0 +0.3 82 -4 -3 1015.6 1015.0 +3.4
09 24.05 ЮЗ 7
{11}
20 км 10/0
[Ac und]
+3.5 +0.9 83 -3 -3 1016.0 1015.4
12 24.05 ЮЗ 5
{8}
20 км 10/0
[Ac und]
+2.9 -0.1 81 -2 -2 1016.6 1016.0
15 24.05 ЮЗ 5
{8}
20 км 9/3 300 м
[Sc Ac lent Ci fib]
+2.2 -0.8 81 -3 -3 1016.9 1016.3
18 24.05 ЮЗ 4
{7}
20 км 9/3 300 м
[Sc Ac lent Ci fib]
+1.8 -1.3 80 -3 -2 1017.6 1017.0 -0.4

 

Местоположение метеостанции Мыс Ванкарем (Чукотка, Россия): широта 67.83 долгота -175.00 высота над уровнем моря 5 м.

В архиве по умолчанию представлена погода на Мысе Ванкарем за последнюю неделю. Архивные данные за месяц целиком и за предыдущие месяцы, начиная с января 2011 года, Вы можете получить, выбрав интересующий диапазон дат из раскрывающегося списка и нажав кнопку "Ввод!".


*Определитесь, кто Вы:
робот инопланетянин человек

Внимание! Время в таблицах - всемирное. Для получения местного времени необходимо прибавить поправку, которая равна 12 ч.

Смотрите также архив погоды в соседних городах и на ближайших метеорологических станциях:

Погода на Мысе Шмидта (Чукотка, Россия) (201 км)
Погода в Эгвекиноте (Чукотка, Россия) (239 км)
Погода в Уэлене (Чукотка, Россия) (320 км)
Погода на Острове Врангеля (Чукотка, Россия) (369 км)

Пояснения к столбцам:

Ветер - указаны скорость ветра в м/с - средняя за 10 мин, порывы в срок и между сроками (в фигурных скобках) и направление, откуда дует ветер: С - северный, СВ - северо-восточный, В - восточный, ЮВ - юго-восточный, Ю - южный, ЮЗ - юго-западный, З - западный, СЗ - северо-западный.
Видимость - горизонтальная дальность видимости в метрах или километрах. При видимости от 1 до 10 км при отсутствии осадков обычно наблюдается дымка, при ухудшении видимости до 1 км и менее - туман. В сухую погоду видимость может ухудшаться дымом, пылью или мглою.
Явления - указаны атмосферные явления, наблюдавшиеся в срок или в последний час перед сроком; фигурными скобками обозначены явления, наблюдавшиеся между сроками (за 1-3 часа до срока); квадратными скобками обозначены град или гололедные отложения с указанием их диаметра в мм.
Облачность - указаны через наклонную черту общая и нижняя облачность в баллах и высота нижней границы облаков в метрах; квадратными скобками обозначены формы облаков: Ci - перистые, Cs - перисто-слоистые, Cc - перисто-кучевые, Ac - высококучевые, As - высокослоистые, Sc - слоисто-кучевые, Ns - слоисто-дождевые, Cu - кучевые, Cb - кучево-дождевые. Подробнее классификацию облаков см. в Атласе облаков (PDF).
T - Температура воздуха - температура, измеренная на высоте 2 м над землей.
Td - Температура точки росы - температура, при понижении до которой содержащийся в воздухе водяной пар достигнет насыщения.
f - Относительная влажность воздуха - влажноcть воздуха, измеренная на высоте 2 м над землей.
Te - Эффективная температура - температура, которую ощущает одетый по сезону человек в тени. Характеристика душности погоды. При расчете учитывается влияние влажности воздуха и скорости ветра на теплоощущения человека.
Tes - Эффективная температура на солнце - температура, которую ощущает человек, с поправкой на солнечный нагрев. Характеристика знойности погоды. Зависит от высоты солнца над горизонтом, облачности и скорости ветра. Ночью, в пасмурную погоду, а также при ветре 12 м/с и более поправка равна нулю.
P - Атмосферное давление - приведенное к уровню моря атмосферное давление.
Po - Атмосферное давление - измеренное на уровне метеостанции атмосферное давление.
Tmin - Минимальная температура - минимум температуры воздуха на высоте 2 м над землей.
Tmax - Максимальная температура - максимум температуры воздуха на высоте 2 м над землей.
R - Количество осадков - Количество выпавших осадков за период времени, мм. При наведении курсора мыши на число - период времени, за который выпало указанное количество осадков.
R24 - Количество осадков - Количество выпавших осадков за 24 часа, мм.
S - Снежный покров - Высота снежного покрова, см. При наведении курсора мыши на число - состояние снежного покрова и степень покрытия местности в баллах.